Date,TemperatureHighF,TemperatureAvgF,TemperatureLowF,DewpointHighF,DewpointAvgF,DewpointLowF,HumidityHigh,HumidityAvg,HumidityLow,PressureMaxIn,PressureMinIn,WindSpeedMaxMPH,WindSpeedAvgMPH,GustSpeedMaxMPH,PrecipitationSumIn
2013-12-1,55,46,37,49,42,34,92,87,78,30.01,29.77,4,0,4,0.00
2013-12-2,59,49,40,50,45,38,94,85,69,29.77,29.56,7,0,7,0.00
2013-12-3,62,50,38,54,46,35,94,88,71,29.57,29.45,6,1,6,0.00
2013-12-4,63,48,31,53,44,27,94,85,58,29.82,29.45,11,2,11,0.00
2013-12-5,31,23,19,27,18,15,88,81,72,30.15,29.81,11,4,11,0.00
2013-12-6,20,18,12,15,12,4,88,80,68,30.40,30.09,11,4,12,0.00
2013-12-7,23,15,6,13,7,1,82,70,52,30.47,30.16,7,2,7,0.00
2013-12-8,28,23,18,26,19,9,93,84,64,30.17,29.85,8,1,8,0.00
2013-12-9,27,22,18,25,18,14,91,83,69,30.18,30.00,9,2,9,0.00
2013-12-10,35,22,7,20,13,3,88,70,51,30.24,30.10,6,1,6,0.11
2013-12-11,34,22,12,24,15,7,88,73,54,30.45,30.13,10,2,10,0.02
2013-12-12,42,26,11,24,15,5,81,64,44,30.45,30.11,6,1,6,0.06
2013-12-13,34,32,26,32,28,17,93,85,62,30.11,29.73,6,1,6,0.09
2013-12-14,34,30,26,32,28,23,93,90,86,30.06,29.70,10,3,13,0.08
2013-12-15,46,32,19,36,27,17,90,80,61,30.08,29.93,8,1,8,0.27
2013-12-16,61,46,36,39,34,29,80,63,41,30.00,29.88,8,2,8,0.00
2013-12-17,52,37,28,36,29,24,89,73,47,30.16,29.97,12,1,12,0.00
2013-12-18,63,44,27,40,32,22,86,65,39,30.14,29.80,9,2,9,0.00
2013-12-19,58,53,45,51,46,37,87,78,71,29.80,29.61,6,2,8,0.00
2013-12-20,60,43,31,56,40,29,92,90,80,29.75,29.59,9,2,9,0.01
2013-12-21,35,33,31,34,31,29,94,93,92,29.69,29.38,8,0,8,0.34
2013-12-22,35,29,24,34,26,21,94,89,85,30.18,29.54,10,3,10,0.00
2013-12-23,26,21,16,21,16,13,88,84,72,30.40,30.18,9,2,9,0.00
2013-12-24,34,23,11,23,16,8,89,76,63,30.40,30.10,8,2,8,0.00
2013-12-25,38,31,27,33,26,21,91,83,76,30.22,30.13,7,1,7,0.00
2013-12-26,49,34,22,34,26,19,92,75,47,30.23,30.12,9,1,9,0.00
2013-12-27,58,40,27,36,29,23,89,68,40,30.24,30.14,7,1,7,0.00
2013-12-28,55,41,30,37,30,24,82,67,41,30.14,29.80,7,1,7,0.00
2013-12-29,43,29,18,36,22,12,85,76,68,30.12,29.79,12,4,12,0.00
2013-12-30,37,23,11,20,13,6,78,65,44,30.16,30.04,6,1,6,0.00
2013-12-31,55,38,21,30,22,14,78,57,35,30.21,30.01,8,1,8,0.00